Weather in Gribovka

Russia / Amur Oblast     49°28′24″N   130°22′30″E
temp.,
°C
wind,
m/s
gust,
m/s
humid.,
%
clouds,
%
prec.,
mm/h
press.,
hPa
HPBL,
m
18 may, wed
wed1800:00+5nne116633 0.0 100810
03:00+4wnw11695 0.0 101010
06:00+5ssw00640 0.0 101155
09:00+13wsw24350 0.0 1011925
12:00+17w35200 0.0 10102395
15:00+18w362130 0.0 10082360
18:00+17w1227100 0.0 10071237
21:00+10sse225495 0.1 100734
19 may, thu
thu1900:00+9se2777100 0.4 1006161
03:00+8sse2393100 1.4 100577
06:00+10sw3881100 0.4 1005312
09:00+13sw237099 0.6 1005510
12:00+20wnw58355 0.0 10042538
15:00+20wnw58255 0.0 10043116
18:00+18nw58291 0.0 10052609
21:00+11n22505 0.0 100738
20 may, fri
fri2000:00+8ene116197 0.0 100710
03:00+7e1162100 0.0 100710
06:00+8se2374100 0.3 1007113
09:00+14sse3955100 0.3 1003538
12:00+17sse61248100 1.3 10011021
15:00+21ssw5942100 1.3 9981801
18:00+15s41280100 0.6 997521
21:00+12sse2695100 3.3 998172
21 may, sat
sat2100:00+12w4997100 0.8 997540
03:00+10nnw249788 1.9 999255
06:00+10nne259459 0.3 1000266
09:00+14nne347057 0.3 1001900
12:00+17nw345994 0.1 10021379
15:00+17nnw455490 0.3 10021182
18:00+18n2545100 0.0 10021266
21:00+13nne226996 0.0 100436
22 may, sun
sun2200:00+12nne1173100 0.0 100528
03:00+9nnw118479 0.0 100512
06:00+11ssw1179100 0.0 100766
09:00+15sw116183 0.0 1008582
12:00+20w213348 0.0 10062484
15:00+20sw323392 0.0 10052587
18:00+19s2337100 0.0 10051777
21:00+13se3116398 0.0 1006382